When you browse on this site, cookies collect data to enhance your experience and personalize the content and advertising you see.
Visit our Privacy Policy to learn more. By continuing to use the site, you agree to this use of cookies and data.
  • In Romania
  • List of Countries
  • For 7 days
  • Water Temperature
  • Satellite Maps
  • Weather Map
  • Weather Widgets
  • user-avatar
    Login

    Hourly Weather Zolkiewka

    Today, 15 December, Saturday

    Time Temperature Precipitation Wind Pressure Humidity
    00:00 -4°C° 0 mm 2 mps 747 mmHg 87%
    01:00 -4°C° 0 mm 2 mps 747 mmHg 88%
    02:00 -3°C° 0 mm 2 mps 747 mmHg 88%
    03:00 -3°C° 0 mm 2 mps 747 mmHg 89%
    04:00 -3°C° 0 mm 2 mps 747 mmHg 89%
    05:00 -4°C° 0 mm 3 mps 747 mmHg 90%
    06:00 -4°C° 0 mm 3 mps 747 mmHg 90%
    07:00 -3°C° 0 mm 2 mps 747 mmHg 91%
    08:00 -2°C° 0 mm 2 mps 747 mmHg 89%
    09:00 -2°C° 0 mm 3 mps 747 mmHg 87%
    10:00 -2°C° 0 mm 3 mps 747 mmHg 85%
    11:00 -1°C° 0 mm 3 mps 747 mmHg 81%
    12:00 -1°C° 0 mm 3 mps 747 mmHg 77%
    13:00 -1°C° 0 mm 3 mps 747 mmHg 73%
    14:00 -2°C° 0 mm 3 mps 746 mmHg 77%
    15:00 -2°C° 0 mm 3 mps 746 mmHg 80%
    16:00 -4°C° 0 mm 3 mps 746 mmHg 83%
    17:00 -4°C° 0 mm 3 mps 746 mmHg 85%
    18:00 -4°C° 0 mm 3 mps 746 mmHg 86%
    19:00 -5°C° 0 mm 3 mps 746 mmHg 87%
    20:00 -4°C° 0 mm 2 mps 745 mmHg 88%
    21:00 -4°C° 0 mm 2 mps 745 mmHg 89%
    22:00 -4°C° 0 mm 2 mps 745 mmHg 89%
    23:00 -4°C° 0 mm 2 mps 744 mmHg 89%

    Tomorrow, 16 December, Sunday

    Time Temperature Precipitation Wind Pressure Humidity
    00:00 -4°C° 0 mm 2 mps 744 mmHg 89%
    01:00 -4°C° 0 mm 2 mps 744 mmHg 89%
    02:00 -4°C° 0 mm 2 mps 743 mmHg 89%
    03:00 -4°C° 0 mm 2 mps 743 mmHg 89%
    04:00 -2°C° 0 mm 1 mps 742 mmHg 88%
    05:00 -2°C° 0 mm 1 mps 742 mmHg 88%
    06:00 -2°C° 0 mm 1 mps 742 mmHg 88%
    07:00 -2°C° 0 mm 1 mps 741 mmHg 88%
    08:00 -4°C° 0 mm 2 mps 741 mmHg 86%
    09:00 -4°C° 0 mm 2 mps 741 mmHg 84%
    10:00 -3°C° 0 mm 2 mps 741 mmHg 81%
    11:00 -3°C° 0 mm 2 mps 741 mmHg 78%
    12:00 -2°C° 0 mm 2 mps 740 mmHg 75%
    13:00 -2°C° 0 mm 2 mps 740 mmHg 72%
    14:00 -2°C° 0 mm 2 mps 740 mmHg 75%
    15:00 -3°C° 0 mm 2 mps 740 mmHg 79%
    16:00 -4°C° 0 mm 2 mps 739 mmHg 82%
    17:00 -4°C° 0 mm 2 mps 740 mmHg 81%
    18:00 -5°C° 0 mm 3 mps 740 mmHg 81%
    19:00 -4°C° 0 mm 3 mps 740 mmHg 81%
    20:00 -4°C° 0 mm 3 mps 740 mmHg 80%
    21:00 -4°C° 0 mm 3 mps 740 mmHg 79%
    22:00 -4°C° 0 mm 3 mps 740 mmHg 78%
    23:00 -3°C° 0 mm 2 mps 740 mmHg 79%

    Day after tomorrow, 17 December, Monday

    Time Temperature Precipitation Wind Pressure Humidity
    00:00 -3°C° 0 mm 2 mps 740 mmHg 80%
    01:00 -3°C° 0 mm 2 mps 740 mmHg 81%
    02:00 -3°C° 0 mm 2 mps 740 mmHg 82%
    03:00 -3°C° 0 mm 2 mps 740 mmHg 82%
    04:00 -3°C° 0 mm 2 mps 741 mmHg 83%
    05:00 -3°C° 0 mm 2 mps 741 mmHg 85%
    06:00 -3°C° 0 mm 2 mps 741 mmHg 86%
    07:00 -3°C° 0 mm 2 mps 741 mmHg 87%
    08:00 -2°C° 0 mm 2 mps 742 mmHg 85%
    09:00 -1°C° 0 mm 2 mps 742 mmHg 83%
    10:00 -1°C° 0 mm 2 mps 743 mmHg 81%
    11:00 +1°C° 0 mm 2 mps 743 mmHg 80%
    12:00 +2°C° 0 mm 2 mps 743 mmHg 79%
    13:00 +3°C° 0 mm 1 mps 743 mmHg 78%
    14:00 +3°C° 0 mm 1 mps 744 mmHg 81%
    15:00 +2°C° 0 mm 1 mps 744 mmHg 84%
    16:00 +1°C° 0 mm 1 mps 744 mmHg 87%
    17:00 +1°C° 0 mm 1 mps 745 mmHg 88%
    18:00 -2°C° 0 mm 2 mps 745 mmHg 88%
    19:00 -2°C° 0 mm 2 mps 745 mmHg 89%
    20:00 -2°C° 0 mm 2 mps 746 mmHg 89%
    21:00 -2°C° 0 mm 2 mps 746 mmHg 89%
    22:00 -2°C° 0 mm 2 mps 746 mmHg 89%
    23:00 -1°C° 0 mm 2 mps 746 mmHg 89%

    18 December, Tuesday

    Time Temperature Precipitation Wind Pressure Humidity
    00:00 -1°C° 0 mm 2 mps 747 mmHg 89%
    01:00 -1°C° 0 mm 2 mps 747 mmHg 89%
    02:00 -1°C° 0 mm 2 mps 747 mmHg 90%
    03:00 -1°C° 0 mm 2 mps 747 mmHg 90%
    04:00 -1°C° 0 mm 2 mps 747 mmHg 91%
    05:00 -1°C° 0 mm 2 mps 747 mmHg 91%
    06:00 -1°C° 0 mm 2 mps 748 mmHg 92%
    07:00 +1°C° 0 mm 2 mps 748 mmHg 93%
    08:00 +1°C° 0 mm 2 mps 748 mmHg 93%
    09:00 +2°C° 0 mm 1 mps 749 mmHg 92%
    10:00 +3°C° 0 mm 1 mps 749 mmHg 92%
    11:00 +3°C° 0 mm 1 mps 749 mmHg 92%
    12:00 +3°C° 0 mm 1 mps 749 mmHg 91%
    13:00 +3°C° 0 mm 1 mps 749 mmHg 91%
    14:00 +3°C° 0 mm 1 mps 749 mmHg 92%
    15:00 +1°C° 0 mm 0 mps 748 mmHg 93%
    16:00 0°C° 0 mm 0 mps 748 mmHg 94%
    17:00 0°C° 0 mm 0 mps 748 mmHg 95%
    18:00 0°C° 0 mm 0 mps 748 mmHg 95%
    19:00 +1°C° 0 mm 1 mps 749 mmHg 95%
    20:00 +1°C° 0 mm 1 mps 748 mmHg 95%
    21:00 +1°C° 0 mm 1 mps 748 mmHg 95%
    22:00 +1°C° 0 mm 1 mps 748 mmHg 95%
    23:00 +1°C° 0 mm 1 mps 748 mmHg 95%

    19 December, Wednesday

    Time Temperature Precipitation Wind Pressure Humidity
    00:00 -2°C° 0 mm 2 mps 748 mmHg 95%
    01:00 -2°C° 0 mm 2 mps 747 mmHg 95%
    02:00 -2°C° 0 mm 2 mps 747 mmHg 94%
    03:00 -2°C° 0 mm 2 mps 747 mmHg 94%
    04:00 -2°C° 0 mm 2 mps 747 mmHg 94%
    05:00 -3°C° 0 mm 2 mps 747 mmHg 94%
    06:00 -4°C° 0 mm 3 mps 747 mmHg 93%
    07:00 -4°C° 0 mm 3 mps 747 mmHg 93%
    08:00 -4°C° 0 mm 3 mps 747 mmHg 90%
    09:00 -2°C° 0 mm 3 mps 747 mmHg 86%
    10:00 -1°C° 0 mm 3 mps 747 mmHg 83%
    11:00 -1°C° 0 mm 3 mps 747 mmHg 81%
    12:00 0°C° 0 mm 3 mps 747 mmHg 79%
    13:00 0°C° 0 mm 3 mps 746 mmHg 76%
    14:00 -1°C° 0 mm 3 mps 746 mmHg 80%
    15:00 -1°C° 0 mm 3 mps 746 mmHg 84%
    16:00 -2°C° 0 mm 3 mps 746 mmHg 87%
    17:00 -4°C° 0 mm 3 mps 746 mmHg 87%
    18:00 -4°C° 0 mm 3 mps 746 mmHg 87%
    19:00 -4°C° 0 mm 3 mps 746 mmHg 87%
    20:00 -4°C° 0 mm 3 mps 746 mmHg 87%
    21:00 -4°C° 0 mm 3 mps 746 mmHg 86%
    22:00 -4°C° 0 mm 3 mps 746 mmHg 86%
    23:00 -4°C° 0 mm 3 mps 745 mmHg 85%

    20 December, Thursday

    Time Temperature Precipitation Wind Pressure Humidity
    00:00 -5°C° 0 mm 3 mps 745 mmHg 85%
    01:00 -5°C° 0 mm 3 mps 745 mmHg 85%
    02:00 -5°C° 0 mm 3 mps 745 mmHg 85%
    03:00 -5°C° 0 mm 3 mps 745 mmHg 86%
    04:00 -5°C° 0 mm 3 mps 745 mmHg 86%
    05:00 -5°C° 0 mm 3 mps 745 mmHg 86%
    06:00 -5°C° 0 mm 3 mps 745 mmHg 86%
    07:00 -5°C° 0 mm 3 mps 745 mmHg 86%
    08:00 -4°C° 0 mm 3 mps 745 mmHg 83%
    09:00 -4°C° 0 mm 3 mps 746 mmHg 80%
    10:00 -2°C° 0 mm 3 mps 746 mmHg 77%
    11:00 -2°C° 0 mm 3 mps 746 mmHg 75%
    12:00 -1°C° 0 mm 3 mps 746 mmHg 73%
    13:00 0°C° 0 mm 3 mps 745 mmHg 71%
    14:00 -1°C° 0 mm 3 mps 745 mmHg 75%
    15:00 -2°C° 0 mm 3 mps 746 mmHg 79%
    16:00 -3°C° 0 mm 2 mps 746 mmHg 83%
    17:00 -3°C° 0 mm 2 mps 746 mmHg 83%
    18:00 -4°C° 0 mm 2 mps 746 mmHg 84%
    19:00 -4°C° 0 mm 2 mps 746 mmHg 85%
    20:00 -4°C° 0 mm 2 mps 746 mmHg 85%
    21:00 -4°C° 0 mm 2 mps 747 mmHg 85%
    22:00 -4°C° 0 mm 2 mps 747 mmHg 85%
    23:00 -4°C° 0 mm 2 mps 747 mmHg 85%
    Show more